INSAT-3D

Last updated on Jan. 16, 2021, 6:28 a.m. UTC

1 39216U 13038B   21015.77410795 -.00000162  00000-0  00000-0 0  9995
2 39216   0.0134  48.1076 0000713 253.5942 174.5182  1.00270678 27275
UTC
Height (km)
Latitude
Longitude
Inclination
Orbital Period
UTC large
Height (km)
Speed (km/s)
/
Latitude / Longitude
Inclination (degrees)
Orbital Period (minutes)
Azimuth
Elevation
Range (km)
Doppler Factor
iOS Compass Heading
iOS Angle

Next 30 passes for location: Hong Kong

Rise time Rise Azimuth (degrees) Set time Set Azimuth (degrees) Duration Max altitude (degrees)

No matching passes for this satellites